国际通讯卫星 802星 (INTELSAT 802 (IS-802))

导读 | 豆包AI

INTELSAT 802是国际通信卫星组织(ITSO)于1997年6月25日发射的通信卫星,隶属于国际通信卫星系列。作为全球商业通信卫星网络的重要组成部分,该卫星主要承担跨洋语音通信、广播电视传输等国际通信业务,依托地球静止轨道实现覆盖区域内稳定的信号转接,助力全球互联互通,是上世纪末国际卫星通信体系扩容升级的关键节点之一。

基本信息
目录编号:
24846
目录名称:
INTELSAT 802
国际标识:
1997-031A
轨道中心:
EARTH
卫星名称:
国际通讯卫星 802星
卫星全名:
国际通讯卫星 802星 (INTELSAT 802 (IS-802))
卫星状态:
在轨 (已飞行10489 天)
发射日期:
1997-06-25 UTC
国别 :
(ITSO)
星等 :
--
轨道信息
数据来源 国际轨道数据 AOE轨道数据
星历时间 2026-03-14T02:37:36+0800
12小时前
查看轨道信息
2026-03-14T07:00:00+0800
8小时前
查看轨道信息
半长轴 42781.947km 42782.064km
偏心率 0.0027649 0.0027541
轨道倾角 11.204° 11.204°
近地点辐角 290.609° 290.505°
升交点赤经 43.762° 43.761°
平近点角 76.068° 140.532°
近地点 36285.522km 36286.1km
远地点 36522.098km 36521.754km
周期 1467.745分钟 1467.751分钟
每日圈数 0.981097 0.981093
详细信息
卫星平台:
AS-7000
平衡模式:
三轴稳定
覆盖范围:
全球
运营商:
国际卫星通信公司
运营商所在国:
美国
制造商(研发单位):
洛克希德·马丁公司
制造商所在国:
美国
使用方式:
暂无
卫星简介
从1965年4月至1984年3月,国际通信卫星组织发射了5代、6种不同性能的卫星共计35颗,除6颗卫星因运载火箭和远地点发动机故障而发射失败外,其余29颗卫星均被送到了预定的静止轨道位置。1984年8月前后,国际通信卫星组织利用部署在大西洋、太平洋、印度洋上空的15颗国际通信卫星,为遍布世界各地170多个国家或地区提供电话、电传、电报、电视和数据传输等电信业务;该卫星已退役。
2D轨道图
3D轨道图
轨道高度分析图
轨道倾角分析图
轨道综合分析图
查看轨道综合分析图